sat.trackr.live / text

‹ back to catalog

YAOGAN-36 05B

NORAD 57454 · 2023-106C

PAYLOAD ACTIVE UNKNOWN

§ Identity

Operator
Country
PRC
Launch date
2023-07-26
Launch site
XICLF
Launch vehicle
Mass (kg)
RCS (m²)

External: N2YO · Heavens-Above · Gunter

§ Orbital elements

Epoch: 2026-05-25T04:53:46.825152Z

Period
94.86 min
Inclination
34.9944°
Eccentricity
0.0016117
Mean motion
15.18061940 rev/d
Perigee alt
500.6 km
Apogee alt
522.8 km
Semi-major
6,889.8 km
B*
2.7116e-4
RAAN
223.8932°
Arg perigee
266.6265°
Mean anomaly
93.2604°
Rev number
15,737

§ Raw data

YAOGAN-36 05B1 57454U 23106C   26145.20401418  .00005641  00000+0  27116-3 0  99902 57454  34.9944 223.8932 0016117 266.6265  93.2604 15.18061940157370

JSON: /api/v1/satellites/57454 · /tle

For live sub-satellite position, see the globe view (requires WebGL).

§ Visibility from observer

Set your observer location to see the next 7 days of passes ≥ 10°. The values pass through the URL so the page stays shareable.

No JS? Fill the form by hand. The geolocation button needs JavaScript.